Jamestown, ND

2:27 AM CDT on March 26, 2017 (GMT -0500)
Jamestown Municipal

Weather History for KJMS - March, 2014

Change the Weather History Date:

Monday, March 31, 2014

  Actual Average Record
Temperature  
Mean Temperature 20 °F 35 °F  
Max Temperature 27 °F 46 °F 77 °F (1963)
Min Temperature 12 °F 24 °F -5 °F (1923)
Degree Days  
Heating Degree Days 45 30  
Month to date heating degree days 1271 1162  
Since 1 July heating degree days 8539 7920  
Cooling Degree Days 0 0  
Month to date cooling degree days 0 0  
Year to date cooling degree days 0 0  
Moisture  
Dew Point 14 °F    
Average Humidity 88    
Maximum Humidity 100    
Minimum Humidity 75    
Precipitation  
Precipitation 0.03 in 0.03 in 1.00 in (1916)
Month to date precipitation 0.03 0.84  
Year to date precipitation 0.42 1.69  
Sea Level Pressure  
Sea Level Pressure 29.84 in    
Wind  
Wind Speed 30 mph (North)    
Max Wind Speed 45 mph    
Max Gust Speed 84 mph    
Visibility 3 miles    
Events Fog , Snow    
T = Trace of Precipitation, MM = Missing Value Source: NWS Daily Summary

Daily Weather History Graph

Daily Weather History Graph

Search for Another Location

Airport or City:

Trip Planner

Search our weather history database for the weather conditions in past years. The results will help you decide how hot, cold, wet, or windy it might be!

Date:

Astronomy

Mar. 31, 2014 Rise Set
Actual Time 7:15 AM CDT 8:02 PM CDT
Civil Twilight 6:45 AM CDT 8:33 PM CDT
Nautical Twilight 6:08 AM CDT 9:10 PM CDT
Astronomical Twilight 5:30 AM CDT 9:48 PM CDT
Moon 7:36 AM CDT (3/31) 9:29 PM CDT (3/31)
Length of Visible Light 13h 48m
Length of Day
12h 46m
New Moon, 1% of the Moon is Illuminated
Mar 31
New Moon
Apr 7
First Quarter
Apr 15
Full
Apr 22
Last Quarter
Apr 29
New

Hourly Weather History & Observations

Time (CDT) Temp. Windchill Dew Point Humidity Pressure Visibility Wind Dir Wind Speed Gust Speed Precip Events Conditions
12:56 AM 28.0 °F 14.6 °F 21.9 °F 78% 29.90 in 10.0 mi North 20.7 mph - N/A   Overcast
1:25 AM 27.0 °F 12.2 °F 21.0 °F 78% 29.84 in 10.0 mi NNE 24.2 mph 36.8 mph N/A   Overcast
1:56 AM 26.1 °F 10.7 °F 21.0 °F 81% 29.86 in 10.0 mi NNE 25.3 mph 34.5 mph N/A   Partly Cloudy
2:56 AM 24.1 °F 7.7 °F 21.0 °F 88% 29.83 in 10.0 mi NNE 26.5 mph 36.8 mph N/A   Partly Cloudy
3:38 AM 24.1 °F 8.3 °F 21.0 °F 88% 29.78 in 10.0 mi NNE 24.2 mph 38.0 mph N/A   Overcast
3:49 AM 24.1 °F 8.0 °F 21.0 °F 88% 29.77 in 10.0 mi NNE 25.3 mph 35.7 mph N/A   Overcast
3:56 AM 24.1 °F 6.6 °F 19.9 °F 84% 29.81 in 10.0 mi NNE 31.1 mph 36.8 mph N/A   Overcast
4:56 AM 23.0 °F 5.4 °F 19.9 °F 88% 29.81 in 10.0 mi NNE 29.9 mph 35.7 mph N/A   Overcast
5:10 AM 23.0 °F 5.4 °F 19.9 °F 88% 29.74 in 10.0 mi NNE 29.9 mph 38.0 mph N/A   Overcast
5:56 AM 21.9 °F 3.9 °F 19.0 °F 89% 29.82 in 10.0 mi NNE 29.9 mph 36.8 mph N/A   Overcast
6:24 AM 21.0 °F 4.3 °F 18.0 °F 88% 29.78 in 9.0 mi NNE 24.2 mph 39.1 mph N/A   Overcast
6:56 AM 21.0 °F 2.7 °F 18.0 °F 88% 29.84 in 7.0 mi NNE 29.9 mph 41.4 mph N/A   Overcast
7:56 AM 19.9 °F 1.0 °F 17.1 °F 89% 29.81 in 8.0 mi NNE 31.1 mph 39.1 mph N/A   Overcast
8:56 AM 19.0 °F -0.3 °F 16.0 °F 88% 29.83 in 5.0 mi NNE 31.1 mph 40.3 mph N/A   Overcast
9:23 AM 19.0 °F 1.0 °F 16.0 °F 88% 29.78 in 1.8 mi NNE 26.5 mph 34.5 mph 0.00 in Snow Light Snow
9:56 AM 19.0 °F -0.5 °F 16.0 °F 88% 29.82 in 0.8 mi North 32.2 mph 39.1 mph 0.00 in Snow Light Snow
10:05 AM 18.0 °F -2.8 °F 16.0 °F 92% 29.75 in 0.5 mi North 35.7 mph 46.0 mph 0.00 in Fog , Snow Snow
10:30 AM 18.0 °F -2.3 °F 15.1 °F 88% 29.76 in 0.5 mi North 33.4 mph 44.9 mph 0.01 in Fog , Snow Snow
10:36 AM 18.0 °F -2.3 °F 15.1 °F 88% 29.76 in 0.2 mi North 33.4 mph 46.0 mph 0.01 in Fog , Snow Snow
10:40 AM 18.0 °F -2.3 °F 15.1 °F 88% 29.75 in 0.5 mi North 33.4 mph 46.0 mph 0.01 in Fog , Snow Snow
10:56 AM 17.1 °F -3.0 °F 15.1 °F 92% 29.82 in 0.5 mi North 31.1 mph 39.1 mph 0.01 in Fog , Snow Snow
11:04 AM 17.1 °F -3.2 °F 14.0 °F 88% 29.75 in 0.8 mi North 32.2 mph 39.1 mph 0.00 in Snow Light Snow
11:36 AM 16.0 °F -4.4 °F 12.9 °F 88% 29.77 in 0.2 mi North 31.1 mph 43.7 mph 0.00 in Fog Light Freezing Fog
11:43 AM 16.0 °F -5.3 °F 12.9 °F 88% 29.78 in 0.2 mi North 34.5 mph 43.7 mph 0.00 in Fog Light Freezing Fog
11:53 AM 15.8 °F -5.0 °F 12.2 °F 86% 29.78 in 0.2 mi North 32.2 mph 41.4 mph 0.00 in Fog Light Freezing Fog
11:56 AM 15.1 °F -4.7 °F 12.9 °F 91% 29.86 in 0.2 mi North 27.6 mph 41.4 mph 0.01 in Fog Light Freezing Fog
12:56 PM 14.0 °F -7.1 °F 12.9 °F 95% 29.84 in 0.2 mi North 31.1 mph 42.6 mph 0.01 in Fog Light Freezing Fog
1:08 PM 14.0 °F -6.5 °F 12.9 °F 95% 29.76 in 0.2 mi North 28.8 mph 46.0 mph N/A Fog Light Freezing Fog
1:56 PM 14.0 °F -7.1 °F 12.9 °F 95% 29.83 in 0.2 mi North 31.1 mph 43.7 mph N/A Fog Light Freezing Fog
2:46 PM 12.9 °F -9.5 °F 10.9 °F 92% 29.74 in 0.2 mi North 34.5 mph 42.6 mph N/A Fog Light Freezing Fog
2:56 PM 12.9 °F -9.8 °F 10.9 °F 92% 29.81 in 0.2 mi North 35.7 mph 43.7 mph 0.00 in Fog Light Freezing Fog
3:53 PM 12.2 °F -9.6 °F 10.4 °F 92% 29.75 in 0.2 mi North 31.1 mph 54.1 mph 0.00 in Fog Light Freezing Fog
3:56 PM 12.0 °F - 10.9 °F 95% 29.84 in 0.2 mi North - - 0.00 in Fog Light Freezing Fog
4:56 PM 12.0 °F -9.8 °F 10.9 °F 95% 29.88 in 0.2 mi North 31.1 mph 47.2 mph N/A Fog Light Freezing Fog
5:56 PM 12.0 °F - 10.9 °F 95% 29.91 in 0.2 mi North - - N/A Fog Light Freezing Fog
6:56 PM 12.9 °F -8.3 °F 10.9 °F 92% 29.94 in 0.2 mi North 29.9 mph 42.6 mph 0.00 in Fog Light Freezing Fog
7:14 PM 12.9 °F -8.6 °F 12.0 °F 96% 29.85 in 0.2 mi NNW 31.1 mph 41.4 mph N/A Fog Light Freezing Fog
7:56 PM 12.9 °F - 12.0 °F 96% 29.94 in 0.2 mi North - - N/A Fog Light Freezing Fog
8:38 PM 12.9 °F -8.6 °F 10.9 °F 92% 29.89 in 0.2 mi North 31.1 mph 40.3 mph N/A Fog Light Freezing Fog
8:56 PM 12.9 °F -8.6 °F 10.9 °F 92% 29.98 in 0.2 mi North 31.1 mph 43.7 mph N/A Fog Light Freezing Fog
9:06 PM 12.9 °F -8.9 °F 10.9 °F 92% 29.89 in 0.5 mi North 32.2 mph 39.1 mph 0.00 in Fog , Snow Snow
9:16 PM 12.9 °F -9.2 °F 10.9 °F 92% 29.89 in 0.2 mi North 33.4 mph - 0.00 in Fog , Snow Snow
9:29 PM 12.9 °F -9.2 °F 10.9 °F 92% 29.90 in 0.2 mi North 33.4 mph 41.4 mph 0.00 in Fog , Snow Heavy Snow
9:46 PM 12.9 °F -8.3 °F 10.9 °F 92% 29.91 in 0.5 mi North 29.9 mph 43.7 mph 0.00 in Fog , Snow Snow
9:56 PM 12.9 °F -8.9 °F 12.0 °F 96% 30.01 in 0.5 mi North 32.2 mph 41.4 mph 0.00 in Fog , Snow Snow
10:10 PM 12.9 °F -8.6 °F 10.9 °F 92% 29.92 in 0.8 mi NNW 31.1 mph 38.0 mph 0.00 in Snow Light Snow
10:56 PM 12.9 °F -9.2 °F 10.9 °F 92% 30.01 in 0.5 mi NNW 33.4 mph 40.3 mph 0.00 in Fog , Snow Snow
11:52 PM 12.2 °F -8.9 °F 10.4 °F 92% 29.95 in 1.0 mi NNW 28.8 mph - 0.00 in Snow Light Snow
11:56 PM 12.9 °F -8.0 °F 10.9 °F 92% 30.04 in 1.0 mi NNW 28.8 mph - 0.00 in Snow Light Snow